Regional Weather Roundup
Issued by NWS

Home | Current Version | Previous Version | Graphics & Text | Print | Product List | Glossary On
Versions: 1 2 3 4 5 6 7 8 9 10 11 12 13 14 15 16 17 18 19 20 21 22 23 24 25 26 27 28 29 30 31 32 33 34 35 36 37 38 39 40 41 42 43 44 45 46 47 48 49 50
000
ASUS45 KCYS 262010
RWRWY

WYOMING REGIONAL WEATHER ROUNDUP
NATIONAL WEATHER SERVICE CHEYENNE WY
200 PM MDT THU MAR 26 2015

NOTE:  "FAIR" INDICATES FEW OR NO CLOUDS BELOW 12,000 FEET
WITH NO SIGNIFICANT WEATHER AND/OR OBSTRUCTIONS TO VISIBILITY.

WYZ001-262100-
YELLOWSTONE NATIONAL PARK

CITY           SKY/WX    TMP DP  RH WIND       PRES   REMARKS
LK YELLOWSTONE   N/A     40  28  62 W9        30.36S WCI  34
W YELLOWSTONE  NOT AVBL

$$
WYZ002>013-054>058-071-098>099-262100-
NORTHERN WYOMING

CITY           SKY/WX    TMP DP  RH WIND       PRES   REMARKS
JACKSON        SUNNY     43  28  56 CALM      30.36S
CODY           CLOUDY    61  28  29 W18G25    30.16S
GREYBULL       FAIR      59  27  29 VRB7      30.14F
WORLAND        FAIR      57  27  31 VRB3      30.16F
SHERIDAN       CLOUDY    55  33  43 NW21G26   30.12F
BUFFALO        CLOUDY    51  34  52 N18G24    30.14F
GILLETTE       CLOUDY    50  33  52 NW18G28   30.12F
HULETT         CLOUDY    45  30  57 NW12G18   30.13S
NEWCASTLE      FAIR      46  30  53 NW20G26   30.13F

$$
WYZ014>020-022>026-101>103-262100-
CENTRAL WYOMING

CITY           SKY/WX    TMP DP  RH WIND       PRES   REMARKS
BIG PINEY      FAIR      53  25  33 NW23G32   30.29F
PINEDALE       FAIR      46  28  49 W24G32    30.28F
DUBOIS         FAIR      48  27  43 NW22G30   30.26F
LANDER         FAIR      62  27  26 N10       30.14F
RIVERTON       FAIR      58  24  27 NE8       30.17F
CASPER         CLOUDY    52  25  35 W16G24    30.16F
DOUGLAS        CLOUDY    52  25  35 N13G29    30.15F

$$
WYZ021-027>030-104>119-262100-
SOUTHERN WYOMING

CITY           SKY/WX    TMP DP  RH WIND       PRES   REMARKS
EVANSTON       FAIR      52  27  38 VRB7G16   30.36F
KEMMERER       FAIR      46  28  49 W22G30    30.35F
FORT BRIDGER   FAIR      55  26  32 W15G29    30.37F
ROCK SPRINGS   FAIR      53  24  32 W24G33    30.28F
DIXON          FAIR      52  24  33 W12G20    30.31F
RAWLINS        FAIR      53  22  29 W20G31    30.23F
SARATOGA       FAIR      50  23  34 W20G30    30.26F
LARAMIE        CLOUDY    46  21  37 NW24G33   30.19S
CHEYENNE       PTSUNNY   51  21  30 NW25G40   30.14F
TORRINGTON     CLOUDY    51  18  27 N15G26    30.13F
PINE BLUFFS    MOCLDY    52  23  32 NW24G33   30.14F

$$


USA.gov is the U.S. government's official web portal to all federal, state and local government web resources and services.